Date String (YYYY-MM-DD hh:mm:ss) UTC,Instrument flags,Ambient pressure (hPa),Sample flow (lpm),Bypass flow (lpm),Sample temperature (°C),Ambient temperature (°C),ASC tube jacket temperature (°C),LED temperature (°C),Box temperature (°C),Sample RH (%),Span deviation,Mass concentration (μg/m³),Mass concentration (μg/m³),Mass concentration (μg/m³)
DateTimeUTC,F1_M11,P_M11,Q1_M11,Q2_M11,T1_M11,T2_M11,T3_M11,T4_M11,T5_M11,U1_M11,ZSPAN_M11,X2_M11,X0_M11,X1_M11
2023-04-27 15:00:00,,0825.6,5.00,0.00,25.1,23.9,00.0,33.3,26.8,15.6,0000.0,0003.08,0007.18,0002.02
2023-04-27 15:01:00,,0825.6,4.99,0.00,25.1,23.9,00.0,33.3,26.8,15.1,0000.0,0003.06,0007.23,0002.02
2023-04-27 15:02:00,,0825.6,5.00,0.00,25.1,23.9,00.0,33.3,26.8,15.6,0000.0,0003.00,0007.31,0002.02
2023-04-27 15:03:00,,0825.6,5.00,0.00,25.1,24.0,00.0,33.3,26.8,16.1,0000.0,0003.08,0007.49,0002.05
2023-04-27 15:04:00,,0825.6,4.99,0.00,25.2,24.0,00.0,33.3,26.8,15.1,0000.0,0003.16,0007.64,0002.07
2023-04-27 15:05:00,,0825.5,5.00,0.00,25.2,24.0,00.0,33.4,26.8,17.0,0000.0,0003.19,0007.63,0002.10
2023-04-27 15:06:00,,0825.6,5.00,0.00,25.2,24.0,00.0,33.4,26.9,17.9,0000.0,0003.23,0007.73,0002.14
2023-04-27 15:07:00,,0825.6,5.00,0.00,25.2,24.0,00.0,33.4,26.8,15.8,0000.0,0003.23,0007.17,0002.14
2023-04-27 15:08:00,,0825.6,5.00,0.00,25.2,24.1,00.0,33.4,26.8,16.5,0000.0,0003.21,0006.91,0002.16
2023-04-27 15:09:00,,0825.6,5.00,0.00,25.3,24.1,00.0,33.4,26.9,16.7,0000.0,0003.23,0007.07,0002.17
2023-04-27 15:10:00,,0825.6,5.00,0.00,25.3,24.1,00.0,33.5,26.9,16.1,0000.0,0003.24,0007.16,0002.16
2023-04-27 15:11:00,,0825.6,5.00,0.00,25.3,24.1,00.0,33.5,26.9,14.7,0000.0,0003.23,0007.16,0002.15
2023-04-27 15:12:00,,0825.6,5.00,0.00,25.3,24.1,00.0,33.5,26.9,14.9,0000.0,0003.24,0007.29,0002.15
2023-04-27 15:13:00,,0825.6,4.99,0.00,25.3,24.2,00.0,33.5,27.0,16.9,0000.0,0003.27,0007.75,0002.15
2023-04-27 15:14:00,,0825.6,5.00,0.00,25.3,24.2,00.0,33.5,27.0,20.5,0000.0,0003.30,0007.97,0002.18
2023-04-27 15:15:00,,0825.6,5.00,0.00,25.4,24.2,00.0,33.6,27.0,18.7,0000.0,0003.33,0008.20,0002.22
2023-04-27 15:16:00,,0825.6,5.00,0.00,25.4,24.2,00.0,33.6,27.1,17.3,0000.0,0003.33,0008.37,0002.22
2023-04-27 15:17:00,,0825.7,5.00,0.00,25.4,24.2,00.0,33.6,27.1,16.8,0000.0,0003.29,0008.93,0002.19
2023-04-27 15:18:00,,0825.6,5.01,0.00,25.4,24.3,00.0,33.6,27.1,16.1,0000.0,0003.35,0009.27,0002.15
2023-04-27 15:19:00,,0825.6,5.00,0.00,25.4,24.3,00.0,33.6,27.1,15.4,0000.0,0003.37,0009.39,0002.13
2023-04-27 15:20:00,,0825.6,5.01,0.00,25.5,24.3,00.0,33.6,27.1,13.6,0000.0,0003.35,0009.36,0002.07
2023-04-27 15:21:00,,0825.6,4.99,0.00,25.5,24.3,00.0,33.7,27.1,13.4,0000.0,0003.30,0009.48,0002.02
2023-04-27 15:22:00,,0825.6,5.00,0.00,25.5,24.3,00.0,33.7,27.2,14.3,0000.0,0003.27,0009.41,0002.02
2023-04-27 15:23:00,,0825.6,5.00,0.00,25.5,24.3,00.0,33.7,27.2,18.8,0000.0,0003.29,0009.33,0002.07
2023-04-27 15:24:00,,0825.6,5.00,0.00,25.5,24.4,00.0,33.7,27.2,21.2,0000.0,0003.34,0008.72,0002.16
2023-04-27 15:25:00,,0825.6,5.00,0.00,25.6,24.4,00.0,33.7,27.2,21.3,0000.0,0003.34,0008.55,0002.21
2023-04-27 15:26:00,,0825.6,5.00,0.00,25.6,24.4,00.0,33.7,27.2,20.8,0000.0,0003.35,0008.25,0002.26
2023-04-27 15:27:00,,0825.6,5.00,0.00,25.6,24.4,00.0,33.8,27.2,20.2,0000.0,0003.44,0008.16,0002.35
2023-04-27 15:28:00,,0825.6,5.00,0.00,25.6,24.4,00.0,33.8,27.2,19.1,0000.0,0003.51,0007.52,0002.45
2023-04-27 15:29:00,,0825.6,5.00,0.00,25.6,24.5,00.0,33.8,27.3,17.5,0000.0,0003.49,0007.14,0002.55
2023-04-27 15:30:00,,0825.6,5.00,0.00,25.6,24.5,00.0,33.8,27.3,17.6,0000.0,0003.52,0007.12,0002.64
2023-04-27 15:31:00,,0825.6,5.00,0.00,25.7,24.5,00.0,33.9,27.3,17.0,0000.0,0003.53,0007.07,0002.73
2023-04-27 15:32:00,,0825.6,5.00,0.00,25.7,24.5,00.0,33.9,27.3,17.4,0000.0,0003.59,0006.80,0002.83
2023-04-27 15:33:00,,0825.6,5.01,0.00,25.7,24.6,00.0,33.9,27.3,17.7,0000.0,0003.65,0007.12,0002.91
2023-04-27 15:34:00,,0825.6,5.00,0.00,25.7,24.6,00.0,33.9,27.4,16.4,0000.0,0003.65,0007.46,0002.94
2023-04-27 15:35:00,,0825.6,4.99,0.00,25.7,24.6,00.0,33.9,27.4,16.4,0000.0,0003.61,0007.43,0002.88
2023-04-27 15:36:00,,0825.5,4.98,0.00,25.8,24.6,00.0,34.0,27.4,17.5,0000.0,0003.58,0007.34,0002.86
2023-04-27 15:37:00,,0825.5,5.01,0.00,25.8,24.6,00.0,34.0,27.4,18.7,0000.0,0003.55,0007.99,0002.82
2023-04-27 15:38:00,,0825.5,5.01,0.00,25.8,24.6,00.0,34.0,27.4,17.3,0000.0,0003.50,0008.63,0002.76
2023-04-27 15:39:00,,0825.5,5.00,0.00,25.8,24.7,00.0,34.0,27.4,15.8,0000.0,0003.45,0008.57,0002.66
2023-04-27 15:40:00,,0825.5,4.99,0.00,25.8,24.7,00.0,34.0,27.5,14.6,0000.0,0003.42,0008.54,0002.58
2023-04-27 15:41:00,,0825.5,4.99,0.00,25.8,24.7,00.0,34.0,27.5,14.8,0000.0,0003.36,0008.50,0002.49
2023-04-27 15:42:00,,0825.5,5.00,0.00,25.9,24.7,00.0,34.1,27.5,14.2,0000.0,0003.32,0008.53,0002.42
2023-04-27 15:43:00,,0825.5,5.00,0.00,25.9,24.7,00.0,34.1,27.5,14.5,0000.0,0003.27,0008.48,0002.35
2023-04-27 15:44:00,,0825.6,5.01,0.00,25.9,24.7,00.0,34.1,27.5,16.4,0000.0,0003.25,0008.35,0002.31
2023-04-27 15:45:00,,0825.6,5.00,0.00,25.9,24.7,00.0,34.1,27.6,16.7,0000.0,0003.26,0008.09,0002.28
2023-04-27 15:46:00,,0825.6,4.99,0.00,25.9,24.7,00.0,34.1,27.6,16.2,0000.0,0003.24,0008.02,0002.26
2023-04-27 15:47:00,,0825.6,5.00,0.00,25.9,24.7,00.0,34.1,27.6,16.3,0000.0,0003.24,0008.52,0002.24
2023-04-27 15:48:00,,0825.5,5.01,0.00,25.9,24.7,00.0,34.2,27.6,16.6,0000.0,0003.23,0008.17,0002.19
2023-04-27 15:49:00,,0825.6,5.01,0.00,26.0,24.7,00.0,34.2,27.6,16.4,0000.0,0003.21,0007.29,0002.16
2023-04-27 15:50:00,,0825.6,5.01,0.00,26.0,24.8,00.0,34.2,27.6,14.9,0000.0,0003.14,0007.13,0002.15
2023-04-27 15:51:00,,0825.4,5.00,0.00,26.0,24.8,00.0,34.2,27.6,13.7,0000.0,0003.11,0007.29,0002.11
2023-04-27 15:52:00,,0825.3,4.99,0.00,26.0,24.8,00.0,34.2,27.6,13.9,0000.0,0003.08,0007.32,0002.05
2023-04-27 15:53:00,,0825.2,4.99,0.00,26.0,24.8,00.0,34.2,27.6,12.7,0000.0,0002.99,0006.99,0001.99
2023-04-27 15:54:00,,0825.3,5.01,0.00,26.0,24.8,00.0,34.3,27.6,12.6,0000.0,0003.00,0007.02,0001.94
2023-04-27 15:55:00,,0825.3,5.01,0.00,26.1,24.8,00.0,34.3,27.6,12.5,0000.0,0002.93,0006.96,0001.87
2023-04-27 15:56:00,,0825.3,4.98,0.00,26.0,24.7,00.0,34.3,27.6,12.8,0000.0,0002.84,0006.76,0001.79
2023-04-27 15:57:00,,0825.2,4.99,0.00,26.1,24.7,00.0,34.3,27.6,13.3,0000.0,0002.70,0006.49,0001.69
2023-04-27 15:58:00,,0825.2,5.00,0.00,26.1,24.7,00.0,34.3,27.6,12.4,0000.0,0002.60,0005.72,0001.61
2023-04-27 15:59:00,,0825.2,5.00,0.00,26.1,24.6,00.0,34.3,27.6,12.6,0000.0,0002.47,0005.97,0001.53
